Weather History for Deadhorse, AK

Change the Weather History Date:

Monday, April 21, 2014

  Actual Average Record
Temperature  
Mean Temperature 8 °F -  
Max Temperature 17 °F 12 °F 59 °F (1999)
Min Temperature 0 °F 0 °F -16 °F (1987)
Degree Days  
Heating Degree Days 56    
Moisture  
Dew Point 4 °F    
Average Humidity 86    
Maximum Humidity 92    
Minimum Humidity 81    
Precipitation  
Precipitation 0.00 in - - ()
Sea Level Pressure  
Sea Level Pressure 30.18 in    
Wind  
Wind Speed 18 mph (ENE)    
Max Wind Speed 23 mph    
Max Gust Speed -    
Visibility 5 miles    
Events Fog , Snow    
Averages and records for this station are not official NWS values.
T = Trace of Precipitation, MM = Missing Value Source: NWS Daily Summary

Daily Weather History Graph

Daily Weather History Graph

Search for Another Location

Airport:

Trip Planner

Search our weather history database for the weather conditions in past years. The results will help you decide how hot, cold, wet, or windy it might be!

Date:

Astronomy

Apr. 21, 2014 Rise Set
Actual Time 5:15 AM AKDT 10:32 PM AKDT
Civil Twilight 3:35 AM AKDT 12:18 AM AKDT
Nautical Twilight Sun does not rise Sun does not rise
Astronomical Twilight Sun does not rise Sun does not rise
Moon 5:08 AM AKDT (4/21) 9:58 AM AKDT (4/21)
Length of Visible Light 20h 43m
Length of Day
17h 16m
Waning Gibbous, 56% of the Moon is Illuminated
Apr 21
Waning Gibbous
Apr 21
Last Quarter
Apr 28
New
May 6
First Quarter
May 14
Full

Hourly Weather History & Observations

Time (AKDT) Temp. Windchill Dew Point Humidity Pressure Visibility Wind Dir Wind Speed Gust Speed Precip Events Conditions
12:04 AM 3.0 °F -17.3 °F -0.0 °F 87% 30.22 in 10.0 mi ENE 18.4 mph - N/A   Scattered Clouds
12:23 AM 3.0 °F -17.3 °F -0.0 °F 87% 30.22 in 5.0 mi ENE 18.4 mph - 0.00 in Snow Light Snow
12:53 AM 1.9 °F -16.9 °F -0.9 °F 88% 30.23 in 6.0 mi ENE 15.0 mph - 0.00 in Snow Light Snow
1:43 AM 1.0 °F -18.7 °F -2.0 °F 87% 30.23 in 9.0 mi NE 16.1 mph - 0.00 in Snow Light Snow
1:53 AM 1.0 °F -18.7 °F -2.0 °F 87% 30.24 in 9.0 mi NE 16.1 mph - 0.00 in Snow Light Snow
2:53 AM 1.9 °F -16.2 °F -2.0 °F 83% 30.23 in 9.0 mi NE 13.8 mph - 0.00 in   Scattered Clouds
3:19 AM 1.9 °F -12.9 °F -0.0 °F 91% 30.22 in 7.0 mi ENE 9.2 mph - 0.00 in Snow Light Snow
3:53 AM 8.1 °F -11.2 °F 5.0 °F 87% 30.22 in 4.0 mi ENE 19.6 mph - 0.00 in Snow Light Snow
4:34 AM 1.9 °F -13.8 °F -0.0 °F 91% 30.21 in 9.0 mi East 10.4 mph - 0.00 in Snow Light Snow
4:53 AM -0.9 °F -16.4 °F -4.0 °F 87% 30.22 in 9.0 mi ENE 9.2 mph - 0.00 in Snow Light Snow
5:53 AM -0.0 °F -18.7 °F -4.0 °F 83% 30.22 in 8.0 mi ENE 13.8 mph - 0.00 in   Mostly Cloudy
6:53 AM 1.9 °F -16.2 °F -2.0 °F 83% 30.21 in 10.0 mi ENE 13.8 mph - N/A   Overcast
7:47 AM 3.2 °F -17.6 °F -0.4 °F 85% 30.20 in 1.8 mi East 19.6 mph - N/A   Overcast
7:53 AM 3.0 °F -19.3 °F 1.0 °F 91% 30.21 in 1.5 mi East 23.0 mph - N/A Snow Blowing Snow
8:09 AM 3.9 °F -15.6 °F -0.0 °F 84% 30.20 in 2.5 mi East 17.3 mph - N/A Snow Blowing Snow
8:22 AM 3.0 °F -17.3 °F -0.0 °F 87% 30.20 in 6.0 mi ENE 18.4 mph - N/A   Mostly Cloudy
8:53 AM 3.0 °F -17.3 °F -0.0 °F 87% 30.21 in 6.0 mi East 18.4 mph - N/A   Mostly Cloudy
9:01 AM 3.0 °F -16.7 °F -0.0 °F 87% 30.20 in 6.0 mi ENE 17.3 mph - N/A   Overcast
9:28 AM 3.9 °F -16.6 °F -0.0 °F 84% 30.20 in 1.8 mi ENE 19.6 mph - N/A Snow Blowing Snow
9:48 AM 3.2 °F -18.6 °F 1.4 °F 92% 30.20 in 0.8 mi ENE 21.9 mph - N/A   Overcast
9:53 AM 5.0 °F -15.7 °F 1.0 °F 84% 30.21 in 0.8 mi ENE 20.7 mph - N/A   Overcast
10:27 AM 6.1 °F -14.3 °F 3.0 °F 87% 30.19 in 0.5 mi ENE 20.7 mph - 0.00 in Fog Light Freezing Fog
10:35 AM 6.1 °F -14.8 °F 3.0 °F 87% 30.19 in 0.5 mi ENE 21.9 mph - 0.00 in Fog , Snow Blowing Snow
10:53 AM 8.1 °F -11.7 °F 3.9 °F 83% 30.19 in 0.5 mi ENE 20.7 mph - 0.00 in Fog , Snow Blowing Snow
10:55 AM 8.1 °F -11.7 °F 3.9 °F 83% 30.18 in 0.5 mi ENE 20.7 mph - N/A Fog , Snow Blowing Snow
11:53 AM 10.0 °F -9.5 °F 6.1 °F 84% 30.18 in 0.5 mi ENE 21.9 mph - N/A Fog , Snow Blowing Snow
12:53 PM 10.9 °F -7.5 °F 7.0 °F 84% 30.18 in 1.5 mi East 19.6 mph - N/A Snow Blowing Snow
1:24 PM 10.9 °F -7.0 °F 7.0 °F 84% 30.17 in 2.0 mi ENE 18.4 mph - N/A Snow Blowing Snow
1:39 PM 10.9 °F -7.5 °F 7.0 °F 84% 30.17 in 3.0 mi ENE 19.6 mph - N/A   Mostly Cloudy
1:53 PM 10.9 °F -6.5 °F 7.0 °F 84% 30.18 in 6.0 mi ENE 17.3 mph - N/A   Mostly Cloudy
2:53 PM 12.9 °F -4.9 °F 9.0 °F 84% 30.16 in 10.0 mi ENE 19.6 mph - N/A   Overcast
3:53 PM 16.0 °F 0.6 °F 10.9 °F 81% 30.15 in 10.0 mi East 16.1 mph - N/A   Overcast
4:53 PM 17.1 °F -0.6 °F 12.0 °F 81% 30.14 in 5.0 mi East 23.0 mph - N/A   Overcast
5:53 PM 17.1 °F -0.3 °F 12.9 °F 84% 30.13 in 6.0 mi East 21.9 mph - N/A   Overcast
6:53 PM 17.1 °F 0.1 °F 12.9 °F 84% 30.12 in 5.0 mi East 20.7 mph - N/A   Overcast
7:53 PM 17.1 °F -0.3 °F 12.9 °F 84% 30.11 in 6.0 mi East 21.9 mph - N/A   Overcast
8:00 PM 17.1 °F -0.3 °F 12.9 °F 84% 30.10 in 5.0 mi East 21.9 mph - N/A   Overcast
8:53 PM 17.1 °F -0.3 °F 12.9 °F 84% 30.10 in 5.0 mi East 21.9 mph - N/A   Overcast
9:53 PM 16.0 °F 0.1 °F 12.0 °F 84% 30.09 in 10.0 mi East 17.3 mph - N/A   Overcast
10:53 PM 12.0 °F -4.0 °F 9.0 °F 88% 30.08 in 10.0 mi ENE 15.0 mph - N/A   Overcast
11:53 PM 8.1 °F -9.0 °F 5.0 °F 87% 30.07 in 10.0 mi ENE 15.0 mph - N/A   Partly Cloudy